Starlink 31197

operational
NORAD ID: 58859 Int'l Des: 2024-019 Owner: SPXS Country: US Constellation: starlink
LEOCIRCULAR

关于 Starlink 31197

正在加载描述...

实时位置

正在加载3D地球...

即将过境

高度历史

Altitude vs Time

uPlot chart will show altitude changes over time

两行轨道根数

1 58859U 24019G 25260.11865302 .00003623 00000-0 14118-3 0 9994
2 58859 42.9981 149.4451 0000320 307.0967 52.9855 15.27561889 92530
Epoch: Sep 17, 2025 • Age: 21 hours

当前状态

高度 482.6 km
速度 7.63 km/s
星下点 22.23°N, 177.61°W
发射日期 Jan 29, 2024
运行时间 1.6 years
类型 internet

技术详情

分类 Payload
质量 730.00 kg
干质量 700.00 kg
总质量 730.00 kg
长度 0.30 m
直径 4.10 m
跨度 29.00 m
形状 Box + pan
制造商 SPXS
平台类型 Starlink V2M
阶段状态 In Orbit
所有者/国家 SPXS/US

大型星座

Loading constellations...